7 * 24
多渠道服务支持
STARLINK-34826是美国于2025年8月28日发射的星链卫星,隶属于SpaceX公司的星链星座项目。星链项目旨在构建全球卫星互联网星座,为全球偏远、网络基础设施匮乏地区提供高速宽带网络服务,该卫星入轨后将助力扩展星链系统覆盖范围,提升全球网络服务能力。
美国
(US)
| 数据来源 | 国际轨道数据 |
| 星历时间: | 2026-09-11T23:08:10+0800 1天前 查看轨道信息 |
| 半长轴: | 6840.829km |
| 偏心率: | 0.0001089 |
| 轨道倾角: | 53.161° |
| 近地点辐角 | 91.478° |
| 升交点赤经 | 20.953° |
| 平近点角 | 268.635° |
| 近地点: | 461.947km |
| 远地点: | 463.437km |
| 周期: | 93.848分钟 |
| 每日圈数: | 15.344038 |